Temp
11 11 10 10 10 10 10 9 9 9 9 9 9 9 9 9 8 9 8 11 11 11 11 11 12 11 12 12 12 13 13 14 16 17 16 18 19 21 21 20 20 20 19 19 20
12 11 10 10 10 10 10 9 9 9 9 9 9 9 8 8 8 8 11 10 11 11 11 11 10 10 10 11 12 12 13 14 17 18 16 18 18 19 20 20 20 19 18 17 18
13 11 10 10 10 9 9 9 9 9 9 9 8 8 8 8 8 9 10 11 12 11 11 10 10 10 10 11 11 12 12 15 16 17 17 17 17 16 19 20 21 19 18 17 16
12 12 10 10 9 9 9 9 9 8 9 9 8 8 8 8 9 11 11 12 11 11 11 10 9 9 8 10 11 11 13 13 14 16 16 16 16 16 17 20 17 20 18 17 18
11 12 11 10 9 9 9 8 9 8 8 9 8 8 8 8 8 11 11 11 11 11 10 9 8 8 8 9 10 10 11 13 14 15 15 15 16 16 16 17 17 18 19 17 17
10 11 11 10 9 9 8 8 8 8 8 8 8 8 8 7 11 11 11 11 11 10 9 9 9 9 8 8 9 11 12 12 13 14 15 14 15 14 17 15 16 17 19 19 18
9 11 11 10 9 8 8 8 8 8 8 8 8 8 7 8 10 10 11 11 11 10 9 9 9 8 8 8 10 11 10 11 12 13 14 13 14 15 15 14 15 16 20 19 19
9 11 11 9 9 8 8 8 8 7 8 8 8 8 7 10 10 10 10 10 10 9 9 9 9 8 7 9 9 9 10 11 12 13 14 14 14 14 13 15 15 15 21 19 18
8 10 10 9 8 7 7 7 7 8 8 8 8 7 7 10 10 11 10 10 10 9 8 8 8 7 7 8 9 10 10 10 13 14 12 13 12 14 12 14 15 14 17 20 19
8 9 10 8 8 7 7 7 7 7 7 7 7 7 9 10 11 10 10 9 9 8 8 8 7 7 8 8 9 10 10 12 13 13 13 11 10 11 13 13 14 14 14 19 18
8 8 9 9 8 7 6 7 7 7 7 7 8 8 9 10 10 9 9 9 8 8 8 7 7 8 8 9 9 9 11 12 13 13 13 13 12 12 12 12 13 14 14 15 18
7 8 9 8 7 7 6 6 8 9 8 7 8 8 9 10 8 9 9 8 7 8 8 7 8 8 10 10 9 8 11 12 14 13 14 13 13 12 12 12 13 14 14 14 15
7 8 8 7 7 6 6 8 9 9 8 9 9 9 9 9 8 9 8 7 7 7 7 8 9 9 8 9 10 8 11 12 13 13 13 13 13 13 13 12 13 14 14 14 15
7 7 7 7 6 6 6 8 9 9 2 8 9 9 9 8 8 9 8 8 7 8 8 8 8 9 8 9 10 10 12 14 13 14 14 13 14 13 13 13 13 15 15 15 15
7 7 7 7 6 6 8 9 9 9 5 9 9 10 9 9 9 9 8 7 8 8 7 10 10 8 10 11 12 12 13 13 13 13 14 13 13 14 13 13 14 15 16 15 15
7 7 6 6 6 7 9 9 9 4 5 7 9 10 10 9 10 10 8 8 9 8 8 8 8 10 11 11 12 13 13 12 13 13 13 14 15 16 15 14 14 16 16 15 15
6 7 6 6 7 8 9 7 5 4 8 8 9 10 9 9 10 10 10 10 9 9 9 9 9 11 11 12 12 12 12 12 13 13 14 13 14 15 15 15 15 16 15 15 15
7 7 6 6 7 8 8 5 5 8 6 9 9 10 9 10 11 10 10 9 9 8 9 10 12 11 11 12 12 12 12 12 13 13 13 13 14 15 14 14 13 13 13 12 13
7 6 6 6 7 8 5 3 6 6 8 8 10 10 10 10 10 10 9 8 9 9 10 11 11 12 11 12 12 12 11 12 11 11 12 12 14 15 14 14 14 13 12 12 12
6 6 6 6 6 8 4 7 5 7 8 9 11 10 11 10 10 10 9 10 9 9 9 11 12 11 12 12 12 13 13 13 10 13 12 13 13 14 13 13 13 12 11 11 11
6 6 6 6 8 5 4 5 8 9 10 11 9 9 10 10 10 9 9 10 9 9 9 10 11 11 12 11 11 12 12 10 10 10 14 13 14 13 12 12 13 12 12 11 11
6 6 5 6 6 5 7 6 9 9 10 10 10 10 11 11 10 10 10 10 9 9 11 10 9 10 11 11 10 11 11 10 11 12 7 11 14 12 11 12 12 13 12 12 12
5 6 6 7 7 7 6 8 10 10 10 11 11 11 11 11 11 10 10 11 9 10 10 11 8 7 10 11 12 11 11 9 9 9 9 12 14 12 12 12 12 13 13 12 11
6 6 6 7 7 6 7 8 9 10 10 11 11 12 12 10 9 10 10 11 10 11 11 10 8 9 8 10 10 11 11 10 9 9 11 11 13 14 12 12 11 11 11 11 11
6 6 7 6 7 6 8 9 9 10 10 10 12 12 12 11 11 10 10 11 11 10 10 9 8 6 8 10 10 11 11 11 7 10 10 11 12 12 11 10 11 10 11 11 11
6 6 5 6 9 7 8 9 9 10 10 11 11 11 11 11 12 10 10 10 11 10 9 8 7 7 8 9 10 11 11 10 10 11 11 11 11 10 10 9 10 10 10 10 10
5 5 5 8 8 8 9 8 9 9 9 10 10 10 10 10 10 9 8 7 9 11 9 8 8 8 8 8 10 10 11 11 11 10 11 11 11 9 9 10 9 9 9 9 9
Height
807 805 805 807 808 806 805 804 806 802 802 799 797 796 796 795 795 793 792 792 791 792 791 792 792 793 794 794 793 791 792 780 775 777 778 773 776 768 767 770 766 765 764 755 775
800 800 800 800 802 803 802 803 803 801 800 798 796 796 795 794 793 791 789 790 791 791 791 792 793 794 796 795 793 793 787 777 769 769 773 772 774 771 768 765 764 762 761 763 768
794 795 797 797 796 799 799 800 800 798 797 796 794 795 795 793 793 788 787 789 791 790 791 793 794 795 797 794 792 788 784 777 771 769 769 770 772 772 770 764 754 758 764 762 760
793 790 792 792 793 794 796 795 797 797 795 794 793 795 793 792 792 787 787 789 789 790 791 792 794 797 799 794 790 790 781 780 775 771 769 770 768 767 770 760 759 752 753 757 763
789 787 788 788 790 790 790 792 793 794 793 792 793 794 793 793 789 785 786 787 788 789 790 792 795 797 797 795 791 787 783 780 776 775 769 768 768 771 766 762 757 759 753 754 759
788 784 782 781 784 787 787 790 790 792 791 791 793 792 792 795 783 784 785 786 787 788 789 790 792 794 795 792 791 781 779 780 778 774 770 771 765 773 762 765 756 752 747 747 754
782 781 777 779 785 787 783 788 788 790 790 789 791 791 791 787 782 782 783 783 785 785 788 788 789 793 791 788 781 780 781 776 775 773 770 773 771 768 769 766 757 750 741 750 751
779 777 776 776 780 784 783 785 787 788 787 788 789 790 787 780 780 779 780 781 782 784 784 785 787 789 791 783 778 781 782 776 765 768 769 772 765 767 776 766 764 751 738 745 752
776 772 769 772 777 782 782 782 786 787 787 788 790 787 786 779 778 778 780 781 782 782 783 785 786 786 782 780 780 771 775 774 760 761 772 770 771 764 777 768 763 758 748 742 746
773 769 763 768 774 779 783 782 784 787 788 788 787 791 781 778 777 778 779 779 779 781 783 784 784 779 777 774 770 768 771 762 758 762 766 776 777 776 771 770 768 764 756 739 745
770 769 761 765 771 777 782 783 789 790 786 783 781 779 776 776 776 777 777 778 778 780 779 779 780 771 773 770 767 769 761 757 756 758 765 768 773 775 773 774 772 764 761 747 747
769 766 762 764 769 773 781 779 777 776 781 778 778 776 774 775 777 774 776 779 779 775 774 777 767 765 761 766 768 775 763 755 755 759 761 767 765 771 773 774 771 762 762 753 753
767 762 759 763 769 770 775 776 775 775 779 776 775 773 773 775 774 772 775 777 776 777 773 770 758 760 765 763 765 774 759 753 753 759 761 759 764 769 769 767 758 758 762 758 756
763 764 759 764 771 769 773 774 775 775 806 779 775 773 773 774 774 770 772 774 773 768 765 764 760 758 764 761 762 758 750 744 750 753 759 765 774 769 764 761 765 756 755 754 754
757 759 758 763 764 767 769 772 775 776 820 777 773 771 771 773 772 767 770 771 763 760 766 755 754 763 754 752 751 749 746 746 752 752 757 770 772 764 766 762 763 754 748 752 755
754 756 756 762 762 765 767 772 775 806 815 786 772 770 768 768 767 764 766 769 760 759 763 765 764 759 752 749 750 745 751 755 755 754 761 768 766 763 763 764 756 746 748 750 756
751 746 752 758 761 765 768 774 796 813 782 779 775 768 770 769 764 764 760 759 763 760 757 758 758 753 753 747 750 750 755 764 764 765 769 774 768 766 763 762 759 754 755 755 757
747 747 753 757 760 765 770 782 802 777 785 771 769 767 773 770 763 766 764 770 763 767 767 757 749 759 754 754 754 758 759 764 765 769 778 775 772 770 767 765 763 761 761 760 757
746 746 754 758 761 766 777 800 785 780 771 773 767 769 771 769 771 766 771 772 766 766 766 757 760 759 757 756 757 755 764 759 770 780 775 783 773 766 768 768 769 767 769 768 764
742 750 756 760 765 769 785 776 778 770 767 766 765 772 769 772 767 768 775 770 770 766 764 760 758 766 759 760 755 756 757 762 771 769 779 779 783 779 773 772 771 773 772 769 767
744 754 760 763 768 776 791 782 768 764 763 761 770 775 774 770 769 776 779 768 770 766 764 765 764 767 762 771 771 764 761 769 774 783 763 779 781 780 781 778 774 775 774 773 771
743 753 762 766 775 778 775 774 761 763 763 761 763 765 767 770 774 774 775 773 768 767 766 768 775 779 773 770 769 764 765 772 772 771 807 788 787 781 782 780 778 776 775 773 771
745 755 765 767 771 773 775 764 761 762 761 759 761 762 764 768 771 773 773 768 768 766 767 766 787 798 779 772 768 772 775 784 787 793 804 785 787 784 783 781 779 777 774 773 773
743 759 769 768 769 773 770 764 763 759 761 760 761 760 762 770 775 773 773 769 768 766 764 768 789 786 799 784 783 775 778 782 789 796 790 792 782 778 784 784 782 781 777 776 775
744 755 756 764 768 770 765 762 764 762 761 762 761 761 762 768 771 775 774 771 767 769 770 773 791 801 792 784 784 779 780 782 802 788 791 791 787 783 785 785 783 782 780 779 776
745 754 760 761 760 767 763 763 763 764 762 763 764 765 765 767 766 773 773 773 774 772 776 782 800 800 797 792 788 781 784 786 786 787 788 790 786 788 786 785 782 782 781 780 779
746 749 754 760 762 762 760 765 762 763 766 765 765 769 773 773 772 773 777 780 778 774 782 786 793 800 803 798 787 792 784 786 788 790 787 787 792 796 791 787 787 786 785 784 782
Wind_Speed
26 21 14 12 13 13 14 11 12 12 11 6 6 5 7 8 9 6 4 4 0 3 2 4 3 6 3 1 2 1 6 13 18 20 17 7 7 16 4 5 10 14 9 8 17
30 23 17 13 10 12 13 12 10 11 9 6 4 5 5 7 9 7 5 4 4 1 2 4 2 4 1 2 3 5 8 18 8 11 7 15 14 13 7 8 10 10 3 27 30
27 25 18 13 9 11 12 11 10 10 8 7 4 4 4 5 2 4 3 3 1 1 3 4 3 1 3 2 3 4 14 13 11 11 6 4 4 3 7 12 9 19 14 10 18
31 27 20 14 11 9 12 9 9 9 8 8 4 3 5 1 1 2 4 1 1 2 1 3 3 2 2 6 5 9 10 13 8 10 8 8 4 5 6 10 11 14 20 14 17
27 21 21 17 13 12 9 9 9 9 6 7 3 2 1 1 6 5 5 2 2 2 5 3 2 2 5 3 5 10 10 8 10 13 14 8 8 3 16 15 11 10 19 21 18
33 31 25 19 15 11 9 7 8 7 6 4 3 2 3 2 2 6 3 2 2 4 4 6 6 5 6 8 8 4 14 16 14 10 9 6 7 7 6 14 18 14 22 23 22
28 29 25 17 13 9 7 6 7 9 7 5 5 3 2 8 3 4 4 4 5 5 3 9 6 3 4 7 13 14 6 7 15 13 3 2 8 7 12 15 17 20 20 20 16
26 22 18 17 10 9 6 6 7 7 5 5 6 4 4 2 4 6 6 6 7 7 8 8 7 6 11 7 4 13 7 8 13 12 4 3 5 3 14 17 17 14 18 20 13
27 28 17 17 10 7 6 4 5 4 2 6 5 3 6 4 4 5 9 5 5 5 5 3 4 5 6 4 7 9 5 9 6 16 5 7 0 4 16 16 18 12 10 18 20
30 30 17 18 9 8 5 2 2 3 5 5 3 1 5 2 2 2 4 5 4 1 2 4 3 3 4 4 9 7 8 7 6 12 7 7 4 10 14 16 16 12 13 13 13
28 29 18 17 12 9 8 5 2 2 4 6 4 3 3 1 5 2 1 0 3 3 6 5 4 6 11 11 2 2 9 11 4 11 8 7 1 5 12 11 15 9 8 2 11
24 27 20 16 14 11 11 3 4 1 2 8 3 4 6 2 1 2 1 3 4 8 2 4 8 8 11 10 9 2 10 6 9 11 4 6 2 5 7 12 13 10 6 3 4
21 29 22 17 14 13 13 10 4 2 3 2 3 3 2 4 3 4 4 2 5 7 9 10 4 10 8 9 10 7 12 7 13 10 8 5 6 7 8 10 8 11 7 3 4
18 22 18 17 10 6 6 18 6 3 4 3 2 4 3 3 3 3 5 3 2 4 6 6 5 8 10 7 10 9 7 14 16 6 5 2 1 5 3 5 9 8 4 2 1
15 18 20 18 10 7 4 14 9 2 3 3 2 2 2 2 5 3 4 5 5 5 3 5 5 3 5 7 13 3 9 16 8 9 10 1 2 4 2 1 8 6 1 3 3
17 25 26 14 6 6 16 15 3 6 4 2 1 2 1 3 3 2 3 4 6 0 3 3 2 1 2 1 4 10 7 5 3 0 4 1 2 2 2 1 6 5 4 5 4
16 8 28 16 7 17 18 2 4 4 3 2 2 1 1 3 2 2 3 2 4 4 5 3 3 3 2 7 3 5 4 2 4 4 2 4 1 3 2 2 4 7 7 7 5
13 17 19 11 14 22 7 4 4 2 4 1 1 2 2 4 2 2 1 6 4 4 4 5 5 8 7 3 3 3 2 3 5 4 3 3 4 2 3 6 5 6 6 5 3
13 18 16 9 22 18 4 2 6 5 5 6 3 4 3 1 1 4 5 5 3 5 4 2 5 3 5 4 3 6 4 1 6 2 3 2 2 1 4 9 7 7 5 5 5
10 10 7 14 21 8 4 3 2 3 2 2 4 1 2 5 4 3 5 4 6 5 2 2 4 3 3 2 5 1 0 1 3 4 4 3 2 2 7 7 5 6 6 6 5
18 4 8 20 12 4 2 4 3 2 1 1 3 4 1 1 2 3 4 3 4 6 5 2 3 2 2 4 2 3 2 5 4 2 4 3 2 2 5 4 3 4 4 5 5
6 3 16 16 3 2 2 4 3 2 3 1 4 3 3 1 3 3 2 2 7 2 3 3 3 4 1 4 3 2 3 3 3 3 4 3 1 2 2 1 3 4 5 4 5
3 3 6 1 3 4 3 2 2 3 1 2 2 1 1 2 3 2 1 2 6 4 2 1 3 3 6 3 2 5 4 4 4 2 2 4 2 2 3 4 5 5 4 3 4
4 4 2 1 2 4 4 3 3 2 2 3 3 3 3 4 5 2 2 3 5 3 8 4 4 3 4 2 1 4 4 3 3 3 2 1 0 1 6 6 7 6 6 7 7
3 2 3 6 4 3 1 4 5 3 2 3 3 2 2 2 2 2 1 3 3 7 4 4 4 3 4 3 3 3 4 3 4 2 3 1 2 4 6 6 6 5 5 5 6
3 4 2 2 9 4 1 3 4 2 3 1 5 3 2 3 1 5 3 0 1 5 4 4 1 2 4 5 5 2 2 3 3 2 0 1 2 2 5 4 6 6 6 6 8
2 3 4 6 10 3 5 4 6 5 4 3 5 5 5 2 2 3 4 5 3 2 3 3 3 3 2 4 3 4 2 1 1 2 2 2 2 4 5 7 8 10 9 8 8
Wind_Direction
275 272 270 269 288 293 297 294 299 316 304 280 308 326 313 315 309 305 246 232 280 294 305 344 2 359 349 247 249 270 236 237 227 224 220 245 242 266 252 163 191 191 158 208 172
271 257 257 250 270 289 296 290 289 309 296 278 297 311 317 320 316 273 249 218 260 266 76 51 7 14 315 268 231 216 227 237 225 229 215 245 237 263 247 203 222 188 94 147 166
273 252 252 250 256 281 290 284 292 299 299 285 275 292 315 309 350 258 114 169 164 291 88 95 95 44 218 231 225 203 240 242 260 257 220 199 256 358 264 242 206 186 173 136 119
331 251 248 242 250 256 283 277 292 287 298 307 254 290 314 140 59 157 151 191 91 255 294 93 88 87 243 217 201 252 258 250 277 272 272 242 267 350 254 249 329 216 155 144 158
324 284 241 234 235 248 265 272 281 277 291 298 227 279 136 56 246 181 191 227 290 239 176 148 140 178 244 245 231 240 252 290 260 265 276 285 259 292 282 281 305 270 159 164 181
331 335 235 225 225 243 259 260 284 266 277 265 196 249 144 243 177 177 207 247 240 198 187 169 183 193 264 249 230 235 232 249 270 281 242 292 265 26 320 339 309 248 176 176 182
333 329 233 221 228 249 242 261 271 278 264 247 180 203 153 238 181 202 247 235 250 233 208 229 199 137 279 257 222 244 283 246 235 252 237 160 250 238 345 335 304 279 185 184 182
329 322 259 218 208 237 230 250 275 268 235 213 174 193 244 233 237 243 215 231 250 231 230 260 233 217 226 256 254 204 241 238 223 210 210 143 244 125 326 349 322 303 188 187 173
325 317 278 205 195 225 228 269 251 249 160 155 180 132 272 274 225 264 230 229 238 246 242 221 154 208 213 211 218 186 195 219 155 186 129 182 208 258 309 337 328 319 247 184 177
330 332 211 180 173 197 220 185 210 207 152 149 98 63 268 220 265 232 240 248 231 348 260 203 229 223 187 190 200 200 192 181 169 167 134 185 285 316 313 332 319 300 292 172 162
329 333 177 173 167 179 185 137 79 231 205 195 189 228 252 275 272 211 132 83 198 182 236 187 221 230 202 196 267 53 179 171 171 152 139 196 54 307 305 308 294 288 277 169 154
330 329 196 175 166 165 203 185 231 181 166 226 182 263 260 211 334 221 30 211 207 243 210 229 243 238 207 205 231 167 195 161 119 147 118 159 89 272 290 275 263 285 271 129 163
324 339 183 163 167 162 209 204 229 194 98 246 193 226 228 146 249 214 168 164 233 242 237 245 290 172 166 190 184 226 204 154 135 117 83 107 25 282 246 241 302 262 248 224 162
296 326 171 157 153 161 216 215 206 201 70 275 279 272 125 109 285 196 219 236 251 268 232 237 220 168 163 209 189 177 193 145 146 166 93 25 218 267 264 311 251 282 242 222 213
308 331 175 161 147 161 222 176 185 90 38 259 228 228 95 132 313 237 174 183 245 239 213 68 136 137 161 181 196 195 142 140 163 110 124 96 80 287 310 254 281 265 251 265 231
299 310 171 168 152 192 156 163 163 45 260 312 243 232 289 178 212 245 223 202 262 205 15 86 331 185 289 227 180 135 102 98 102 149 59 111 155 63 81 199 304 360 337 290 264
289 273 166 158 154 155 153 115 53 125 281 240 195 140 61 293 298 276 334 324 18 9 17 158 105 190 56 101 35 86 73 43 28 47 80 317 51 33 339 59 273 305 309 293 255
286 176 165 149 157 160 149 57 97 128 206 262 198 81 63 344 312 7 345 7 33 49 47 27 64 11 348 56 123 82 136 156 143 129 170 248 51 26 327 58 20 17 345 319 261
306 139 156 168 159 164 77 72 207 194 168 165 67 67 345 354 236 21 25 355 350 8 97 59 50 16 16 19 4 313 37 276 106 66 93 350 328 170 44 61 43 33 28 40 71
135 112 142 159 164 132 77 246 209 185 144 230 110 70 24 323 26 34 18 335 339 19 254 68 99 13 18 54 321 291 255 63 13 98 82 37 50 315 345 359 15 37 27 27 34
114 105 156 155 145 59 172 229 238 204 215 131 138 122 193 330 31 27 351 329 357 330 44 39 43 319 11 22 341 353 14 48 108 48 123 102 343 253 294 311 21 39 42 35 35
110 102 161 160 115 171 206 208 183 163 210 68 103 105 133 137 41 70 66 300 334 291 55 334 106 66 173 270 259 3 40 74 96 344 47 89 330 333 285 69 117 42 23 25 13
86 84 136 56 148 186 258 224 147 156 207 101 97 83 150 83 87 59 76 311 340 40 72 6 15 37 351 6 50 51 27 56 70 68 358 99 201 132 34 33 25 12 357 354 350
108 118 67 305 138 175 182 147 106 359 91 81 104 91 94 55 18 112 45 339 341 27 47 84 64 113 157 236 297 56 34 40 97 72 167 54 45 351 14 1 331 341 339 330 320
60 107 170 176 215 201 236 132 128 138 52 22 64 65 116 94 47 74 1 349 3 352 40 79 95 72 46 27 50 55 33 25 76 144 99 230 254 324 340 330 318 322 341 338 332
113 138 60 152 171 154 358 165 131 123 114 174 119 97 44 110 231 194 155 116 14 359 49 16 99 83 31 13 27 94 74 67 77 100 140 246 305 6 321 345 4 358 1 357 349
103 81 100 126 165 172 175 179 178 140 30 82 146 101 67 34 129 86 93 79 85 78 64 56 117 65 330 341 7 28 24 84 97 155 145 112 63 340 350 345 357 344 3 358 348